Regional Weather Roundup
Issued by NWS

Home | Current Version | Previous Version | Text Only | Print | Product List | Glossary Off
Versions: 1 2 3 4 5 6 7 8 9 10 11 12 13 14 15 16 17 18 19 20 21 22 23 24 25 26 27 28 29 30 31 32 33 34 35 36 37 38 39 40 41 42 43 44 45 46 47 48 49 50

000
ASUS43 KFSD 231902
RWRSD

WEATHER ROUNDUP FOR SOUTH DAKOTA
NATIONAL WEATHER SERVICE SIOUX FALLS SD
200 PM CDT TUE SEP 23 2014

NOTE: "FAIR" INDICATES FEW OR NO CLOUDS BELOW 12,000 FEET WITH NO
SIGNIFICANT WEATHER AND/OR OBSTRUCTIONS TO VISIBILITY.


SDZ001>005-009-010-012>017-232000-
NORTHWEST AND NORTH CENTRAL SOUTH DAKOTA

CITY           SKY/WX    TMP DP  RH WIND       PRES   REMARKS
FAITH            N/A     71  57  61 VRB5      29.90S
MOBRIDGE       CLOUDY    65  58  78 SE15      29.91F
$$

SDZ012>016-024>037-041>051-057-063-072>074-232000-
SOUTHWEST AND SOUTH CENTRAL SOUTH DAKOTA

CITY           SKY/WX    TMP DP  RH WIND       PRES   REMARKS
RAPID CTY ARPT MOSUNNY   77  53  43 N9        29.93F
PIERRE         CLOUDY    66  56  70 SE14      29.90F
CUSTER         CLOUDY    68  49  50 W8        30.06S
ELLSWORTH AFB  PTSUNNY   77  55  47 NE5       29.93F
PHILIP         MOSUNNY   72  55  55 CALM      29.89F
PINE RIDGE     PTSUNNY   74  53  48 NW10      29.95F
WINNER         MOCLDY    69  57  65 S16G25    29.92F
$$

SDZ004>011-016>023-039-040-232000-
NORTHEAST SOUTH DAKOTA

CITY           SKY/WX    TMP DP  RH WIND       PRES   REMARKS
ABERDEEN       LGT RAIN  57  55  93 S20G26    30.02F
WATERTOWN      LGT RAIN  56  53  90 S13       30.08F
SISSETON         N/A     66  51  58 S18G28    30.06S
$$

SDZ017-020-022-023-036>040-048>070-232000-
SOUTHEAST SOUTH DAKOTA

CITY           SKY/WX    TMP DP  RH WIND       PRES   REMARKS
SIOUX FALLS    LGT RAIN  61  56  83 S12       30.09F
HURON          CLOUDY    58  55  90 SE13G26   30.01F
CHAMBERLAIN    CLOUDY    63  56  79 SE13      29.95S
MITCHELL       CLOUDY    60  56  86 SE20G26   30.03F
YANKTON        CLOUDY    59  55  88 SE16      30.06F
$$

ABBREVIATIONS USED IN REMARKS
   TC - TEMPERATURE IN CELSIUS
  WCI - WIND CHILL INDEX
   HX - HEAT INDEX
  VSB - VISIBILITY



USA.gov is the U.S. government's official web portal to all federal, state and local government web resources and services.